Home > Weather > Yangon > Past weeks

Flag for Myanmar Weather for the Past 2 Weeks in Yangon, Myanmar

Now
81 °F

Clear.


Feels Like: 84 °F
Forecast: 66 / 94 °F
Wind: 2 mph from East

Location: Rangoon Airport

Current Time: Feb 14, 2016 at 9:45:21 PM

Latest Report: Feb 14, 2016 at 9:00 PM


Visibility: 4 mi

Pressure: 29.92 "Hg

Humidity: 70%

Dew point: 70 °F

Location of YangonLocation

Historic Weather in Yangon — Graph

°F

Yangon Temperature Yesterday

Maximum temperature yesterday: 91 °F (at 2:30 PM)
Minimum temperature yesterday: 68 °F (at 5:30 AM)
Average temperature yesterday: 81 °F

High & Low Weather Summary for the Past Weeks

 TemperatureHumidityPressure
High95 °F (Feb 5, 3:00 PM)100% (Jan 31, 7:00 AM)30.07 "Hg (Jan 31, 7:00 AM)
Low61 °F (Jan 31, 7:00 AM)22% (Feb 9, 3:30 PM)29.80 "Hg (Feb 5, 3:00 PM)
Average79 °F61%29.92 "Hg
* Reported Jan 30 9:00 PM — Feb 14 8:30 PM, Yangon, Weather by CustomWeather, © 2016

Note: Actual official high and low records may vary slightly from our data, if they occured in-between our weather recording intervals... More about our weather records

Advertising

Yangon Weather History for the Previous 24 Hours

 ConditionsComfort  
Time TempWeatherWind HumidityBarometerVisibility
8:30 PM
Sun, Feb 14
81 °FClear.6 mph70%29.92 "Hg4 mi
8:00 PM82 °FClear.3 mph62%29.89 "Hg4 mi
7:30 PM82 °FClear.5 mph62%29.89 "Hg4 mi
7:00 PM84 °FClear.6 mph62%29.89 "Hg4 mi
6:00 PM88 °FHaze.5 mph52%29.86 "Hg4 mi
5:30 PM91 °FHaze.2 mph49%29.86 "Hg4 mi
5:00 PM91 °FClear.2 mph49%29.83 "Hg4 mi
4:30 PM91 °FHaze.2 mph49%29.83 "Hg4 mi
4:00 PM93 °FHaze.3 mph49%29.83 "Hg4 mi
3:30 PM93 °FClear.5 mph49%29.83 "Hg5 mi
3:00 PM93 °FClear.7 mph49%29.83 "Hg5 mi
2:00 PM91 °FClear.9 mph49%29.86 "Hg5 mi
1:30 PM90 °FClear.6 mph49%29.89 "Hg5 mi
1:00 PM90 °FClear.6 mph49%29.89 "Hg5 mi
12:00 PM88 °FClear.6 mph49%29.92 "Hg5 mi
11:00 AM82 °FClear.6 mph55%29.95 "Hg4 mi
10:30 AM81 °FHaze.6 mph54%29.95 "Hg4 mi
10:00 AM79 °FHaze.6 mph61%29.95 "Hg4 mi
9:30 AM75 °FFog.5 mph83%29.95 "Hg2 mi
9:00 AM75 °FFog.2 mph83%29.95 "Hg2 mi
8:30 AM72 °FFog.2 mph83%29.95 "Hg2 mi
8:00 AM70 °FFog.2 mph94%29.92 "Hg1 mi
7:30 AM68 °FFog.2 mph100%29.92 "Hg1 mi
7:00 AM68 °FFog.2 mph100%29.89 "Hg1 mi
6:30 AM68 °FFog.2 mph100%29.89 "Hg1 mi
6:00 AM68 °FFog.2 mph100%29.86 "Hg1 mi
5:30 AM68 °FFog.2 mph100%29.86 "Hg1 mi
5:00 AM68 °FFog.3 mph94%29.86 "Hg3 mi
4:30 AM68 °FFog.2 mph94%29.83 "Hg3 mi
4:00 AM70 °FFog.2 mph94%29.83 "Hg3 mi
1:00 AM72 °FClear.3 mph83%29.86 "Hg4 mi
12:30 AM73 °FClear.3 mph74%29.86 "Hg4 mi
12:00 AM73 °FClear.6 mph83%29.89 "Hg4 mi
11:30 PM
Sat, Feb 13
75 °FClear.6 mph74%29.89 "Hg4 mi
11:00 PM75 °FClear.2 mph74%29.89 "Hg4 mi
10:30 PM77 °FClear.2 mph74%29.89 "Hg4 mi
10:00 PM77 °FClear.2 mph74%29.89 "Hg4 mi
9:30 PM79 °FClear.2 mph70%29.89 "Hg4 mi
9:00 PM79 °FClear.2 mph70%29.89 "Hg4 mi
Weather by CustomWeather, © 2016

See weather overviewHow to use our weather pages